COSMOS 952

导读 | 豆包AI

COSMOS 952是前苏联(CIS)“宇宙”系列卫星,1977年9月16日发射升空。作为冷战时期苏联空间部署的组成部分,延续了该系列军用航天任务特点,推测主要承担空间技术试验或军事情报收集相关任务。它见证了苏联航天技术发展,是那一时期太空对抗背景下,苏联推进空间军事应用探索的典型缩影,完成任务后已再入大气层销毁。

基本信息
目录编号:
10358
目录名称:
COSMOS 952
国际标识:
1977-088A
轨道中心:
EARTH
卫星名称:
COSMOS 952
卫星全名:
--
卫星状态:
在轨 (已飞行17758 天)
发射日期:
1977-09-16 UTC
国别 :
俄罗斯(独联体) (CIS)
星等 :
--
轨道信息
数据来源 国际轨道数据
星历时间: 2026-04-30T23:31:45+0800
6小时前
查看轨道信息
半长轴: 7328.782km
偏心率: 0.0039046
轨道倾角: 64.936°
近地点辐角 19.504°
升交点赤经 258.602°
平近点角 340.750°
近地点: 922.029km
远地点: 979.261km
周期: 104.066分钟
每日圈数: 13.83742
详细信息
使用方式:
暂无
2D轨道图
3D轨道图
轨道高度分析图
轨道倾角分析图
轨道综合分析图
查看轨道综合分析图